Regional Weather Roundup
Issued by NWS Kansas City/Pleasant Hill, MO

Home | Current Version | Previous Version | Graphics & Text | Print | Product List | Glossary Off
Versions: 1 2 3 4 5 6 7 8 9 10 11 12 13 14 15 16 17 18 19 20 21 22 23 24 25 26 27

000
ASUS43 KEAX 230110
RWREAX

WEATHER ROUNDUP FOR EASTERN KANSAS AND NORTHWEST MISSOURI
NATIONAL WEATHER SERVICE KANSAS CITY/PLEASANT HILL MO
800 PM CDT SAT JUL 22 2017

KSZ040-057-103>105-MOZ028-029-037-043-230200-
...KANSAS CITY METROPOLITAN AREA...

CITY           SKY/WX    TMP DP  RH WIND       PRES   REMARKS
K.C. INTL      MOCLDY    89  80  74 N10       29.84R HX 106
K.C. DOWNTOWN  CLEAR     94  77  57 N9        29.80R HX 108
LEES SUMMIT    CLEAR     95  75  52 N5        29.82R HX 107
OLATHE - IXD   CLEAR     90  76  63 N5        29.83R HX 101
OLATHE - OJC   CLEAR     93  74  53 N3        29.83R HX 103
LAWRENCE       CLEAR     89  78  70 N7        29.79R HX 103

$$

MOZ001>008-011>017-020>025-030>033-038>040-044>046-053-054-230200-
...NORTHERN AND CENTRAL MISSOURI...

CITY           SKY/WX    TMP DP  RH WIND       PRES   REMARKS
ST. JOSEPH     CLOUDY    86  81  85 N8        29.82R HX 102
MOSBY          CLEAR     90  77  66 N7        29.80R HX 102
WARRENSBURG    CLEAR     90  73  58 CALM      29.80R HX  98
WHITEMAN AFB   NOT AVBL
CLINTON        CLEAR     91  75  59 SW7       29.81R HX 102
SEDALIA        CLEAR     92  80  68 SW7       29.81R HX 110
WARSAW         NOT AVBL
CHILLICOTHE      N/A     87  83  87 CALM      29.81S HX 108
KIRKSVILLE     PTCLDY    86  77  74 NW5       29.82R HX  97

$$

MOZ041-047>049-056>058-063>065-088>090-097-230200-
...EASTERN AND SOUTHERN MISSOURI...

CITY           SKY/WX    TMP DP  RH WIND       PRES   REMARKS
ST. LOUIS INTL PTCLDY   100  70  37 W8        29.76S HX 107
SPIRIT OF STL  PTCLDY    95  74  50 W5        29.74S HX 105
COLUMBIA       CLEAR     92  76  59 NW6       29.80R HX 104
JEFFERSON CITY CLEAR     94  80  64 NW3       29.76R HX 113
ROLLA          CLEAR     89  76  65 S8        29.81S HX 100
OSAGE BEACH    CLEAR     96  72  45 SW6       29.81R HX 104
SPRINGFIELD    CLEAR     91  73  55 S9        29.84F HX  99
BRANSON        CLEAR     90  68  48 S5        29.89F HX  93
JOPLIN         CLEAR     93  74  53 SW9       29.82F HX 103
WEST PLAINS      N/A     90  70  51 S8        29.89F HX  95

$$

IAZ060-094-KSZ022-034>040-054-083-096-NEZ052-066-093-230200-
...KANSAS...SOUTHEAST NEBRASKA AND IOWA...

CITY           SKY/WX    TMP DP  RH WIND       PRES   REMARKS
TOPEKA         TSTM      80  75  84 SE13G26   29.86S
MANHATTAN      CLOUDY    81  71  71 NE8       29.86R THUNDER
EMPORIA        CLEAR     91  69  48 S7        29.80R HX  96
CHANUTE        PTCLDY    95  73  48 S14       29.79R HX 104
WICHITA        PTCLDY    96  63  33 SE10      29.79R HX  97
OMAHA          MOCLDY    81  74  79 N8        29.88R
LINCOLN        PTCLDY    82  74  76 N9        29.92R
FALLS CITY     CLOUDY    84  78  82 N8        29.84R HX  95
LAMONI         CLEAR     86  74  67 N9        29.86R HX  94
DES MOINES     CLOUDY    84  73  69 N5        29.85S HX  90

$$





USA.gov is the U.S. government's official web portal to all federal, state and local government web resources and services.